Lexington Weather

Lexington, Massachusetts, USA

46°F
10/22/2019 2:18am 
  • Lexington Conditions: Mostly cloudy
  • Temperature: 46.4°F / 8.0°CWarmer 0.9°F than last hour.
  • Dew Point: 44.8°FIncreased 1.5°Fsince last hour.
  • Relative Humidity: 94%Increased 2.0% since last hour.
  • Wind: Calm, 10-min avg: Calm, gust: None
  • Barometer: 30.12 in Steady
  • Visibility: 9 miles
  • Rain Today: 0.00 in
  •   

Regional Weather Roundup
for Boston, MA

        
000
ASUS41 KBOX 191210
RWRBOX

REGIONAL WEATHER ROUNDUP
NATIONAL WEATHER SERVICE BOSTON/NORTON MA
800 AM EDT SAT OCT 19 2019

NOTE:  "FAIR" INDICATES FEW OR NO CLOUDS BELOW 12,000 FEET WITH NO 
SIGNIFICANT WEATHER AND/OR OBSTRUCTIONS TO VISIBILITY.

MAZALL-191300-
EASTERN MASSACHUSETTS
  
CITY           SKY/WX    TMP DP  RH WIND       PRES   REMARKS
BOSTON         FAIR      46  34  62 W10       30.00R                  
6HR MIN TEMP:  44; 6HR MAX TEMP:  48;                                

BEVERLY        FAIR      41  34  76 W8        29.98R                  
LAWRENCE       FAIR      40  34  79 SW5       30.01R                  
BEDFORD        FAIR      38  32  79 W6        29.99R                  
BLUE HILL      NOT AVBL                                               
NORWOOD        FAIR      42  34  73 W9        30.00R                  
MARSHFIELD     FAIR      41  37  87 VRB6      29.99R                  
PLYMOUTH       FAIR      40  35  83 W7        29.99R                  
TAUNTON        FAIR      41  35  79 VRB3      30.00R                  
NEW BEDFORD    FAIR      42  35  76 W3        30.00R                  
$$

MAZALL-191300-
CAPE COD AND THE ISLANDS
  
CITY           SKY/WX    TMP DP  RH WIND       PRES   REMARKS
FALMOUTH       SUNNY     41  36  81 NW6       29.99R                  
HYANNIS        FAIR      44  35  70 NW6       29.97R                  
CHATHAM        NOT AVBL                                               
PROVINCETOWN   FAIR      48  39  71 NW17G23     N/A                   
NANTUCKET      FAIR      48  38  68 NW14G20   29.99R                  
MARTHAS VNYRD  FAIR      47  36  65 NW10      30.00R                  
$$
 
MAZALL-191300-
CENTRAL AND WESTERN MASSACHUSETTS
  
CITY           SKY/WX    TMP DP  RH WIND       PRES   REMARKS
WORCESTER      FAIR      35  32  88 W7        29.99R WCI  29          
6HR MIN TEMP:  33; 6HR MAX TEMP:  39;                                

FITCHBURG      FAIR      34  32  92 CALM      30.02R                  
ORANGE         FAIR      32  29  88 CALM      30.02R                  
SPRINGFIELD    PTCLDY    32  30  95 CALM      30.02R                  
WESTFIELD      FAIR      32  29  88 CALM      30.03R                  
NORTH ADAMS    FAIR      32  30  92 NW3       30.04R                  
PITTSFIELD     FAIR      40  32  73 CALM      30.00R                  
$$
 
RIZALL-191300-
RHODE ISLAND
  
CITY           SKY/WX    TMP DP  RH WIND       PRES   REMARKS
PROVIDENCE     FAIR      40  36  86 W5        30.03R                  
6HR MIN TEMP:  38; 6HR MAX TEMP:  42;                                

NEWPORT        FAIR      46  36  68 NW5       30.01R                  
BLOCK ISLAND   FAIR      47  34  60 N9        30.03R                  
SMITHFIELD     FAIR     N/A N/A N/A CALM      30.01R                  
WESTERLY       FAIR      42  38  85 CALM      30.04R                  
$$
 
CTZALL-191300-
CONNECTICUT
  
CITY           SKY/WX    TMP DP  RH WIND       PRES   REMARKS
BRADLEY INTL   FAIR      38  33  82 CALM      30.03R                  
6HR MIN TEMP:  34; 6HR MAX TEMP:  44;                                

HARTFORD       FAIR      39  37  92 CALM      30.04R                  
BRIDGEPORT     FAIR      41  36  82 CALM      30.06R                  
DANBURY        FAIR      33  32  96 SW5       30.07R WCI  29          
GROTON         FAIR      39  37  92 N3        30.03R                  
NEW HAVEN      FAIR      44  40  85 CALM      30.06R                  
CHESTER        FAIR      39  36  87 W5        30.04R                  
MERIDEN        FAIR      33  32  96 CALM      30.06R                  
WILLIMANTIC    FOG       34  34 100 NE3       30.05R VSB<1/4          
OXFORD         FAIR      31  30  96 CALM      30.05R                  
$$

MEZ002-015-021-024-NHZ003-005-008-011-012-014-VTZ005-008-191300-
NORTHERN NEW ENGLAND
  
CITY           SKY/WX    TMP DP  RH WIND       PRES   REMARKS
PORTLAND ME    FAIR      41  34  76 W10       29.96R                  
6HR MIN TEMP:  37; 6HR MAX TEMP:  43;                                

BANGOR ME      FAIR      44  36  73 W3        29.89R                  
CONCORD NH     FAIR      42  33  70 W8        29.99R                  
MANCHESTER NH  FAIR      43  33  68 NW7       29.98R                  
NASHUA NH      FAIR      35  35 100 NW3       30.01R                  
PORTSMOUTH NH  CLEAR     43  34  70 W7        29.96R                  
JAFFREY NH     FAIR      38  31  76 VRB5      29.99R                  
KEENE NH       FAIR      31  30  96 CALM      30.02R FOG              
BURLINGTON VT  FAIR      42  33  70 N8        30.05R                  
MT. WASHINGTON FOG       19  19 100 NW58G63     N/A  VSB 1/16WCI  -5  
$$

NYZ052-076-191300-
EASTERN NEW YORK
  
CITY           SKY/WX    TMP DP  RH WIND       PRES   REMARKS
ALBANY         FAIR      38  34  85 CALM      30.07R                  
6HR MIN TEMP:  36; 6HR MAX TEMP:  45;                                

NEW YORK CITY  FAIR      48  35  60 W3        30.08R                  
6HR MIN TEMP:  47; 6HR MAX TEMP:  49;                                

$$
 
ANZALL-191300-
MARINE OBSERVATIONS
  
STATION/POSITION TIME  TEMP    WIND        PRES    VSBY  WAVE
                       AIR SEA DIR/SP/G                  HT/PER
                 (UTC) (F)     (DEG/KT/KT) (MB)    (MI)  (FT/S)
BOSTON BUOY      1150   47 56  310/ 17/ 21 1014.4R         2/ 3
BUZZARDS BAY     1100   46     320/ 15/ 16 1016.1S
NANTUCKET SOUND  1140      56                N/A
MASS BAY-STELLWA 1104   47 55  310/ 16/ 21 1014.0R  1 7/8  2/ 3
ISLE OF SHOALS   1100   45     300/ 17/ 18 1013.6R
S OF BLOCK IS    1200      60                N/A           3/ 4
$$

......................KEY.........................
  SKY/WX - SKY CONDITION/PRESENT WEATHER
  TMP    - TEMPERATURE IN FAHRENHEIT
  DWPT   - DEWPOINT IN FAHRENHEIT
  RH     - RELATIVE HUMIDITY IN PERCENT
  WIND   - DIRECTION AND SPEED IN MPH
  PRES   - MEAN SEA LEVEL PRESSURE IN INCHES OF HG
  WCI    - WIND CHILL INDEX
  VSB    - VISIBILITY IN MILES
  HX     - HEAT INDEX
  TC     - TEMPERATURE IN CELSIUS
  VRB    - VARIABLE WIND DIRECTION
  N/A    - NOT AVAILABLE
  
      

Other recent Regional Weather Roundups

Tue Oct 22, 2:10am

Tue Oct 22, 2:00am

Tue Oct 22, 1:10am

Tue Oct 22, 1:00am

Tue Oct 22, 12:10am

Tue Oct 22, 12:00am

Mon Oct 21, 11:10pm

Mon Oct 21, 11:00pm

Mon Oct 21, 10:10pm

Mon Oct 21, 10:01pm

Mon Oct 21, 9:10pm

Mon Oct 21, 9:00pm

Mon Oct 21, 8:10pm

Mon Oct 21, 8:00pm

Mon Oct 21, 7:10pm

Mon Oct 21, 7:01pm

Mon Oct 21, 6:10pm

Mon Oct 21, 6:01pm

Mon Oct 21, 5:10pm

Mon Oct 21, 5:01pm

Mon Oct 21, 4:10pm

Mon Oct 21, 4:00pm

Mon Oct 21, 3:10pm

Mon Oct 21, 3:01pm

Mon Oct 21, 2:10pm

Mon Oct 21, 2:00pm

Mon Oct 21, 1:10pm

Mon Oct 21, 1:01pm

Mon Oct 21, 12:10pm

Mon Oct 21, 12:00pm

Mon Oct 21, 11:10am

Mon Oct 21, 11:00am

Mon Oct 21, 10:10am

Mon Oct 21, 10:00am

Mon Oct 21, 9:10am

Mon Oct 21, 9:00am

Mon Oct 21, 7:10am

Mon Oct 21, 7:00am

Mon Oct 21, 6:10am

Mon Oct 21, 6:00am

Mon Oct 21, 5:10am

Mon Oct 21, 5:00am

Mon Oct 21, 4:10am

Mon Oct 21, 4:00am

Mon Oct 21, 3:10am

Mon Oct 21, 3:00am

Mon Oct 21, 2:10am

Mon Oct 21, 2:01am

Mon Oct 21, 1:10am

Mon Oct 21, 1:00am

Mon Oct 21, 12:10am

Mon Oct 21, 12:00am

Sun Oct 20, 11:10pm

Sun Oct 20, 11:00pm

Sun Oct 20, 10:10pm

Sun Oct 20, 10:00pm

Sun Oct 20, 9:10pm

Sun Oct 20, 9:01pm

Sun Oct 20, 8:10pm

Sun Oct 20, 8:00pm

Sun Oct 20, 7:10pm

Sun Oct 20, 7:01pm

Sun Oct 20, 6:10pm

Sun Oct 20, 6:00pm

Sun Oct 20, 5:10pm

Sun Oct 20, 5:00pm

Sun Oct 20, 4:10pm

Sun Oct 20, 4:00pm

Sun Oct 20, 3:10pm

Sun Oct 20, 3:00pm

Sun Oct 20, 2:10pm

Sun Oct 20, 2:01pm

Sun Oct 20, 1:10pm

Sun Oct 20, 1:01pm

Sun Oct 20, 12:10pm

Sun Oct 20, 12:00pm

Sun Oct 20, 11:10am

Sun Oct 20, 11:00am

Sun Oct 20, 10:10am

Sun Oct 20, 10:00am

Sun Oct 20, 9:10am

Sun Oct 20, 9:00am

Sun Oct 20, 8:10am

Sun Oct 20, 8:00am

Sun Oct 20, 7:10am

Sun Oct 20, 7:00am

Sun Oct 20, 6:10am

Sun Oct 20, 6:00am

Sun Oct 20, 5:10am

Sun Oct 20, 5:00am

Sun Oct 20, 4:10am

Sun Oct 20, 4:00am

Sun Oct 20, 3:10am

Sun Oct 20, 3:00am

Sun Oct 20, 2:10am

Sun Oct 20, 2:00am

Sun Oct 20, 1:10am

Sun Oct 20, 1:00am

Sun Oct 20, 12:10am

Sun Oct 20, 12:00am

Sat Oct 19, 11:10pm

Sat Oct 19, 11:00pm

Sat Oct 19, 10:10pm

Sat Oct 19, 10:00pm

Sat Oct 19, 9:10pm

Sat Oct 19, 9:00pm

Sat Oct 19, 8:10pm

Sat Oct 19, 8:00pm

Sat Oct 19, 7:10pm

Sat Oct 19, 7:00pm

Sat Oct 19, 6:10pm

Sat Oct 19, 6:00pm

Sat Oct 19, 5:10pm

Sat Oct 19, 5:00pm

Sat Oct 19, 4:10pm

Sat Oct 19, 4:00pm

Sat Oct 19, 3:10pm

Sat Oct 19, 3:01pm

Sat Oct 19, 2:10pm

Sat Oct 19, 2:00pm

Sat Oct 19, 1:10pm

Sat Oct 19, 1:01pm

Sat Oct 19, 12:10pm

Sat Oct 19, 12:00pm

Sat Oct 19, 11:10am

Sat Oct 19, 11:01am

Sat Oct 19, 10:10am

Sat Oct 19, 10:00am

Sat Oct 19, 9:10am

Sat Oct 19, 9:00am

Sat Oct 19, 8:00am

Sat Oct 19, 7:10am

Sat Oct 19, 7:00am

Sat Oct 19, 6:10am

Sat Oct 19, 6:00am

Sat Oct 19, 5:10am

Sat Oct 19, 5:00am

Sat Oct 19, 4:10am

Sat Oct 19, 4:00am

Sat Oct 19, 3:10am

Sat Oct 19, 3:00am

Meta data:

ID: 7801434b-d94a-442c-8190-12995701394b
Link: https://api.weather.gov/products/7801434b-d94a-442c-8190-12995701394b